Simultaneous Nadir Overpasses (SNOs) Predictions

Prediction of SNOs between NOAA-19 and TERRA Satellite Orbit:

Table of predicted SNOs for the next 14.0 days since TLE Epoch: 10/26/2012
Index Date (NOAA-19) Time (NOAA-19) NOAA-19 Lat,Lon Date (TERRA) Time (TERRA) TERRA Lat,Lon Distance(km) Time Diff (sec)
1 10/26/2012 19:19:38 69.03,-110.35 10/26/2012 19:18:50 69.00,-110.31 2.78 48
2 10/28/2012 23:13:15 -69.15, 11.09 10/28/2012 23:13:40 -69.14, 11.15 2.56 25
3 10/29/2012 00:04:10 68.96, 178.62 10/29/2012 00:03:08 68.98, 178.58 2.74 62
4 10/31/2012 03:57:47 -69.08, -59.94 10/31/2012 03:57:58 -69.10, -59.98 2.71 11
5 10/31/2012 04:48:40 68.79, 107.72 10/31/2012 04:47:27 68.87, 107.38 16.64 73
6 11/02/2012 07:51:27 69.79, 60.67 11/02/2012 07:52:36 69.69, 62.11 56.73 69
7 11/02/2012 08:42:20 -69.07,-131.05 11/02/2012 08:42:15 -69.09,-131.06 2.37 5
8 11/02/2012 09:33:03 68.25, 37.31 11/02/2012 09:31:54 68.31, 35.62 69.81 69
9 11/04/2012 12:35:50 69.27, -9.69 11/04/2012 12:37:01 69.22, -9.58 6.94 71
10 11/04/2012 13:26:53 -69.07, 157.81 11/04/2012 13:26:32 -69.06, 157.84 1.40 21
11 11/06/2012 17:20:21 69.18, -80.69 11/06/2012 17:21:18 69.17, -80.71 0.94 57
12 11/06/2012 18:11:25 -69.03, 86.74 11/06/2012 18:10:49 -69.01, 86.72 1.84 36
13 11/08/2012 22:04:53 69.15,-151.78 11/08/2012 22:05:34 69.16,-151.79 1.46 41
14 11/08/2012 22:55:57 -69.00, 15.65 11/08/2012 22:55:05 -69.00, 15.64 0.62 52
